Weather in Fedorovka

Russia / Tver Oblast     56°49′04″N   37°14′09″E
temp.,
°C
wind,
m/s
gust,
m/s
humid.,
%
clouds,
%
prec.,
mm/h
press.,
hPa
HPBL,
m
21 april, wed
wed2100:00+4e4997100 1.2 1014779
03:00+3ene3997100 2.1 1010672
06:00+2ene3997100 3.1 1005496
09:00+1ne2399100 5.9 1003139
12:00+2sw2599100 1.3 1004385
15:00+3sw4896100 1.4 1006626
18:00+4sw3990100 0.1 1007637
21:00+3ssw2794100 0.1 1009291
22 april, thu
thu2200:00+4ssw3993100 0.0 1010316
03:00+4s3109597 0.1 1011334
06:00+2s3109657 0.0 1012300
09:00+7ssw4880100 0.0 1012560
12:00+11ssw576660 0.1 10131369
15:00+11ssw4773100 0.5 10141101
18:00+10ssw4977100 0.0 1014760
21:00+9sse4117718 0.0 1014351
23 april, fri
fri2300:00+7sse5139149 0.0 1013470
03:00+7sse4129578 0.1 1012379
06:00+7sse4139389 0.0 1012462
09:00+11s6117528 0.0 1012856
12:00+14ssw61165100 0.4 10121714
15:00+15s6106097 1.1 10131843
18:00+9w688699 1.4 1014507
21:00+6ene119759 1.6 101316
24 april, sat
sat2400:00+7se3139118 0.1 1010400
03:00+8se4128871 0.1 1008504
06:00+8se5138898 0.3 1006635
09:00+9sse61385100 1.2 10051391
12:00+4wsw3695100 0.3 1006342
15:00+3w3797100 3.2 1007539
18:00+4w3795100 0.2 1006542
21:00+4wsw2595100 0.4 1007548
25 april, sun
sun2500:00+3wsw2594100 0.3 1006509
03:00+2wsw3797100 0.7 1005529
06:00+1wsw41098100 3.9 1006385
09:00+3wsw4787100 5.1 1007707
12:00+5sw4670100 0.1 10071296
15:00+7wsw475995 0.2 10071662
18:00+6wsw3667100 0.3 1008850
21:00+2ssw25875 0.4 100980